Location: *
(49.5667°N, 1.3667°W)
Time: 14:34:42
(UTC+00:00)

Cosmos 2056 Rocket - Pass Details

Date: 20 September 2019
Orbit: 742 x 800 km, 74.0° (Epoch: 14 October)

Event Time Altitude Azimuth Distance (km) Brightness Sun altitude
Rises 20:18:03 0° 210° (SSW) 3,297 6.8 -20.9°
Reaches altitude 10° 20:20:28 10° 213° (SSW) 2,371 6.1 -21.3°
Maximum altitude 20:25:51 67° 296° (WNW) 869 3.9 -22.0°
Drops below altitude 10° 20:31:15 10° 19° (NNE) 2,371 6.2 -22.8°
Sets 20:33:40 0° 23° (NNE) 3,298 6.9 -23.1°
